WB4ZUT Weather Reports


time (UTC)temp
C
wind
direction
speed
KPH
gust
KPH
rain 1hr
cm
rain 24hr
cm
rain mn
cm
humidity
%
barometer
mb
20260906104224 23 66 0.0 0.0 0.00 0.00 0.00 97 1013.0
20260906103722 23 63 0.0 0.0 0.00 0.00 0.00 97 1012.9
20260906103217 24 60 0.0 0.0 0.00 0.00 0.00 96 1013.0
20260906102712 24 56 1.6 1.6 0.00 0.00 0.00 96 1012.7
20260906102211 24 64 0.0 0.0 0.00 0.00 0.00 96 1012.6
20260906101706 24 86 0.0 1.6 0.00 0.00 0.00 96 1012.5
20260906101201 24 70 0.0 0.0 0.00 0.00 0.00 96 1012.6
20260906100657 24 57 0.0 1.6 0.00 0.00 0.00 96 1012.6
20260906100156 24 58 0.0 0.0 0.00 0.00 0.00 96 1012.6
20260906095651 24 62 0.0 0.0 0.00 0.00 0.00 96 1012.5
20260906095147 24 61 0.0 0.0 0.00 0.00 0.00 96 1012.5
20260906094646 25 56 0.0 0.0 0.00 0.00 0.00 96 1012.5
20260906094142 25 61 0.0 0.0 0.00 0.00 0.00 96 1012.4
20260906093638 25 64 0.0 0.0 0.00 0.00 0.00 96 1012.5
20260906093138 25 69 0.0 1.6 0.00 0.00 0.00 95 1012.5
20260906092632 25 56 0.0 1.6 0.00 0.00 0.00 95 1012.5
20260906092127 25 65 0.0 0.0 0.00 0.00 0.00 95 1012.4
20260906091624 25 61 0.0 0.0 0.00 0.00 0.00 95 1012.5
20260906091120 25 62 0.0 0.0 0.00 0.00 0.00 95 1012.4
20260906090615 25 64 0.0 0.0 0.00 0.00 0.00 95 1012.2
20260906090115 25 71 0.0 0.0 0.00 0.00 0.00 94 1012.2
20260906085614 25 64 0.0 0.0 0.00 0.00 0.00 94 1012.1
20260906085108 25 61 0.0 0.0 0.00 0.00 0.00 94 1012.3
20260906084603 25 64 0.0 1.6 0.00 0.00 0.00 93 1012.2
20260906084102 25 60 0.0 0.0 0.00 0.00 0.00 93 1012.1
20260906083558 25 59 0.0 0.0 0.00 0.00 0.00 93 1012.1
20260906083057 25 61 0.0 0.0 0.00 0.00 0.00 93 1012.0
20260906082553 25 60 0.0 0.0 0.00 0.00 0.00 92 1012.2
20260906082048 25 69 0.0 0.0 0.00 0.00 0.00 92 1012.5
20260906081544 25 74 0.0 0.0 0.00 0.00 0.00 92 1012.4
20260906081039 25 42 1.6 3.2 0.00 0.00 0.00 92 1012.3
20260906080536 25 64 0.0 0.0 0.00 0.00 0.00 92 1012.1
20260906080031 25 62 0.0 0.0 0.00 0.00 0.00 91 1012.2
20260906075526 25 71 0.0 0.0 0.00 0.00 0.00 91 1012.1
20260906075020 25 58 0.0 0.0 0.00 0.00 0.00 91 1012.0
20260906074515 25 63 0.0 0.0 0.00 0.00 0.00 90 1011.8
20260906074014 25 68 0.0 0.0 0.00 0.00 0.00 90 1012.0
20260906073509 25 59 0.0 0.0 0.00 0.00 0.00 90 1011.9
20260906073005 25 65 0.0 0.0 0.00 0.00 0.00 90 1011.9
20260906072459 25 59 0.0 0.0 0.00 0.00 0.00 90 1012.1
20260906071955 25 69 0.0 0.0 0.00 0.00 0.00 90 1011.7
20260906071451 25 61 0.0 0.0 0.00 0.00 0.00 90 1012.0
20260906070947 25 65 0.0 0.0 0.00 0.00 0.00 90 1012.1
20260906070443 25 66 0.0 0.0 0.00 0.00 0.00 90 1012.1
20260906065938 25 68 0.0 0.0 0.00 0.00 0.00 90 1011.9
20260906065438 25 63 0.0 0.0 0.00 0.00 0.00 90 1012.1
20260906064933 25 48 0.0 0.0 0.00 0.00 0.00 91 1012.3
20260906064430 26 56 0.0 0.0 0.00 0.00 0.00 91 1012.1
20260906063924 26 60 0.0 0.0 0.00 0.00 0.00 91 1012.3
20260906063419 26 77 0.0 0.0 0.00 0.00 0.00 91 1012.0
20260906062914 26 79 0.0 0.0 0.00 0.00 0.00 91 1012.1
20260906062409 26 79 0.0 0.0 0.00 0.00 0.00 90 1012.1
20260906061904 26 79 0.0 0.0 0.00 0.00 0.00 90 1012.2
20260906061400 26 79 0.0 0.0 0.00 0.00 0.00 89 1012.6
20260906060854 26 75 0.0 0.0 0.00 0.00 0.00 89 1012.5
20260906060352 26 75 0.0 1.6 0.00 0.00 0.00 89 1012.5
20260906055848 26 83 0.0 0.0 0.00 0.00 0.00 89 1012.5
20260906055343 26 60 0.0 0.0 0.00 0.00 0.00 90 1012.6
20260906054838 26 61 0.0 1.6 0.00 0.00 0.00 90 1012.7
20260906054333 26 67 0.0 0.0 0.00 0.00 0.00 90 1012.8
20260906053830 26 71 0.0 0.0 0.00 0.00 0.00 90 1012.8
20260906053325 26 56 0.0 0.0 0.00 0.00 0.00 90 1012.5
20260906052821 26 67 0.0 0.0 0.00 0.00 0.00 89 1012.8
20260906052317 26 61 0.0 0.0 0.00 0.00 0.00 89 1012.8
20260906051814 27 74 0.0 0.0 0.00 0.00 0.00 89 1012.4
20260906051313 27 69 0.0 0.0 0.00 0.00 0.00 89 1012.8
20260906050808 27 98 1.6 1.6 0.00 0.00 0.00 89 1012.5
20260906050304 26 126 3.2 4.8 0.00 0.00 0.00 90 1012.6
20260906045802 26 60 0.0 0.0 0.00 0.00 0.00 90 1012.3
20260906045257 26 60 0.0 0.0 0.00 0.00 0.00 90 1012.5
20260906044753 26 60 0.0 0.0 0.00 0.00 0.00 90 1012.3
20260906044248 26 59 0.0 0.0 0.00 0.00 0.00 90 1012.3
20260906043744 27 60 0.0 0.0 0.00 0.00 0.00 90 1012.2
20260906043240 27 60 0.0 0.0 0.00 0.00 0.00 90 1012.1
20260906042739 27 60 0.0 0.0 0.00 0.00 0.00 89 1012.0
20260906042238 27 60 0.0 0.0 0.00 0.00 0.00 88 1012.0
20260906041734 27 82 0.0 0.0 0.00 0.00 0.00 88 1011.9
20260906041229 27 82 0.0 0.0 0.00 0.00 0.00 88 1012.0
20260906040725 27 82 0.0 0.0 0.00 0.00 0.00 87 1012.0
20260906040220 27 82 0.0 0.0 0.00 0.00 0.00 86 1011.9
20260906035715 27 83 0.0 0.0 0.00 0.00 0.00 86 1011.9
20260906035211 27 82 0.0 0.0 0.00 0.00 0.00 85 1011.9
20260906034705 27 82 0.0 0.0 0.00 0.00 0.00 85 1011.9
20260906034159 28 82 0.0 0.0 0.00 0.00 0.00 85 1012.0
20260906033655 28 82 0.0 0.0 0.00 0.00 0.00 85 1011.9
20260906033156 28 82 0.0 0.0 0.00 0.00 0.00 85 1011.9
20260906032652 28 82 0.0 0.0 0.00 0.00 0.00 84 1011.9
20260906032146 28 82 0.0 0.0 0.00 0.00 0.00 84 1012.0
20260906031642 28 81 0.0 0.0 0.00 0.00 0.00 84 1011.9
20260906031137 28 81 0.0 0.0 0.00 0.00 0.00 83 1011.7
20260906030636 28 81 0.0 0.0 0.00 0.00 0.00 82 1011.6
20260906030132 28 81 0.0 0.0 0.00 0.00 0.00 82 1011.6
20260906025631 28 81 0.0 0.0 0.00 0.00 0.00 82 1011.6
20260906025131 28 82 0.0 0.0 0.00 0.00 0.00 82 1011.8
20260906024625 28 81 0.0 0.0 0.00 0.00 0.00 83 1011.6
20260906024125 28 81 0.0 0.0 0.00 0.00 0.00 81 1011.5
20260906023621 28 81 0.0 0.0 0.00 0.00 0.00 81 1011.3
20260906023115 28 81 0.0 0.0 0.00 0.00 0.00 80 1011.2
20260906022610 29 81 0.0 0.0 0.00 0.00 0.00 80 1011.2
20260906022106 29 81 0.0 0.0 0.00 0.00 0.00 79 1011.1
20260906021602 29 81 0.0 0.0 0.00 0.00 0.00 79 1010.7
20260906021100 29 81 0.0 0.0 0.00 0.00 0.00 78 1011.0
20260906020600 30 81 0.0 0.0 0.00 0.00 0.00 77 1011.0
20260906020100 30 81 0.0 0.0 0.00 0.00 0.00 76 1010.9
20260906015554 30 81 0.0 0.0 0.00 0.00 0.00 75 1011.0
20260906015053 30 96 0.0 0.0 0.00 0.00 0.00 75 1011.1
20260906014548 30 60 0.0 0.0 0.00 0.00 0.00 74 1011.0
20260906014044 30 61 0.0 0.0 0.00 0.00 0.00 73 1010.9
20260906013539 30 62 0.0 0.0 0.00 0.00 0.00 72 1011.0
20260906013035 30 64 0.0 0.0 0.00 0.00 0.00 71 1011.0
20260906012530 31 64 0.0 0.0 0.00 0.00 0.00 70 1010.9
20260906012029 31 64 0.0 0.0 0.00 0.00 0.00 69 1010.7
20260906011526 31 64 0.0 0.0 0.00 0.00 0.00 69 1010.9
20260906011025 31 64 0.0 0.0 0.00 0.00 0.00 69 1011.0
20260906010521 31 64 0.0 0.0 0.00 0.00 0.00 67 1010.4
20260906010017 31 64 0.0 0.0 0.00 0.00 0.00 66 1010.6
20260906005516 31 64 0.0 0.0 0.00 0.00 0.00 65 1010.5
20260906005015 31 64 0.0 0.0 0.00 0.00 0.00 64 1010.4
20260906004515 32 77 0.0 1.6 0.00 0.00 0.00 63 1010.6
20260906004010 31 64 0.0 0.0 0.00 0.00 0.00 63 1010.5
20260906003505 31 52 1.6 1.6 0.00 0.00 0.00 64 1010.3
20260906003001 32 48 0.0 0.0 0.00 0.00 0.00 65 1010.2
20260906002455 32 48 0.0 0.0 0.00 0.00 0.00 64 1010.1
20260906001950 32 58 0.0 0.0 0.00 0.00 0.00 63 1010.4
20260906001446 32 56 0.0 0.0 0.00 0.00 0.00 63 1010.5
20260906000940 32 59 0.0 0.0 0.00 0.00 0.00 62 1010.6
20260906000436 32 43 1.6 1.6 0.00 0.00 0.00 61 1010.4
20260905235931 33 54 1.6 1.6 0.00 0.00 0.00 60 1010.7
20260905235430 33 30 3.2 3.2 0.00 0.00 0.00 60 1010.9
20260905234925 33 60 1.6 1.6 0.00 0.00 0.00 59 1010.7
20260905234421 33 54 0.0 0.0 0.00 0.00 0.00 59 1010.5
20260905233915 33 62 0.0 1.6 0.00 0.00 0.00 58 1010.7
20260905233410 34 50 4.8 8.0 0.00 0.00 0.00 57 1010.8
20260905232909 34 89 1.6 3.2 0.00 0.00 0.00 57 1010.7
20260905232406 35 38 4.8 4.8 0.00 0.00 0.00 56 1010.7
20260905231900 35 230 4.8 4.8 0.00 0.00 0.00 56 1010.6
20260905231356 35 47 1.6 1.6 0.00 0.00 0.00 56 1010.6
20260905230853 35 28 3.2 3.2 0.00 0.00 0.00 56 1010.6
20260905230350 35 46 4.8 4.8 0.00 0.00 0.00 56 1010.5
20260905225844 35 33 1.6 1.6 0.00 0.00 0.00 55 1010.2
20260905225339 34 268 4.8 4.8 0.00 0.00 0.00 56 1010.2
20260905224834 34 5 4.8 4.8 0.00 0.00 0.00 56 1010.2
20260905224330 35 48 1.6 1.6 0.00 0.00 0.00 55 1010.2
20260905223824 35 54 3.2 3.2 0.00 0.00 0.00 54 1010.0
20260905223322 35 62 1.6 1.6 0.00 0.00 0.00 54 1010.2
20260905222817 35 287 4.8 4.8 0.00 0.00 0.00 54 1010.3
20260905222316 34 128 1.6 3.2 0.00 0.00 0.00 56 1010.2
20260905221812 34 14 3.2 3.2 0.00 0.00 0.00 55 1010.3
20260905221309 35 313 3.2 4.8 0.00 0.00 0.00 55 1010.5
20260905220804 35 51 3.2 4.8 0.00 0.00 0.00 54 1010.4
20260905220300 35 255 6.4 8.0 0.00 0.00 0.00 52 1010.2
20260905215759 35 230 8.0 9.7 0.00 0.00 0.00 52 1010.4
20260905215255 36 323 4.8 4.8 0.00 0.00 0.00 49 1010.6
20260905214750 35 345 4.8 4.8 0.00 0.00 0.00 50 1010.2
20260905214246 36 320 4.8 4.8 0.00 0.00 0.00 50 1010.3
20260905213741 37 172 4.8 4.8 0.00 0.00 0.00 46 1010.2
20260905213238 37 37 1.6 1.6 0.00 0.00 0.00 45 1010.1
20260905212733 37 31 1.6 3.2 0.00 0.00 0.00 45 1010.0
20260905212232 38 350 3.2 4.8 0.00 0.00 0.00 44 1010.1
20260905211731 38 13 1.6 3.2 0.00 0.00 0.00 44 1010.2
20260905211227 38 262 4.8 8.0 0.00 0.00 0.00 43 1010.0
20260905210724 38 267 3.2 3.2 0.00 0.00 0.00 43 1010.1
20260905210223 38 264 3.2 3.2 0.00 0.00 0.00 43 1010.3
20260905205722 38 357 3.2 3.2 0.00 0.00 0.00 44 1010.3
20260905205216 39 85 4.8 8.0 0.00 0.00 0.00 43 1010.5
20260905204711 39 341 3.2 9.7 0.00 0.00 0.00 42 1010.3
20260905204206 39 60 1.6 1.6 0.00 0.00 0.00 41 1010.5
20260905203700 39 37 3.2 3.2 0.00 0.00 0.00 42 1010.5
20260905203156 39 65 1.6 1.6 0.00 0.00 0.00 44 1010.5
20260905202651 38 1 3.2 3.2 0.00 0.00 0.00 43 1010.4
20260905202146 38 7 4.8 4.8 0.00 0.00 0.00 43 1010.6
20260905201642 38 56 3.2 8.0 0.00 0.00 0.00 45 1010.8
20260905201136 38 49 1.6 1.6 0.00 0.00 0.00 44 1010.9
20260905200632 38 294 8.0 9.7 0.00 0.00 0.00 44 1011.0
20260905200127 38 300 6.4 9.7 0.00 0.00 0.00 44 1010.9
20260905195625 39 251 8.0 11.3 0.00 0.00 0.00 44 1010.9
20260905195121 38 280 3.2 3.2 0.00 0.00 0.00 43 1011.0
20260905194621 39 343 4.8 4.8 0.00 0.00 0.00 43 1011.0
20260905194120 39 65 1.6 1.6 0.00 0.00 0.00 43 1011.0
20260905193615 38 82 0.0 0.0 0.00 0.00 0.00 46 1010.9
20260905193110 37 136 3.2 3.2 0.00 0.00 0.00 46 1011.1
20260905192606 38 8 4.8 4.8 0.00 0.00 0.00 45 1011.1
20260905192102 38 6 3.2 3.2 0.00 0.00 0.00 45 1011.5
20260905191600 38 64 1.6 1.6 0.00 0.00 0.00 45 1011.4
20260905191059 38 341 3.2 3.2 0.00 0.00 0.00 46 1011.7
20260905190557 38 260 4.8 8.0 0.00 0.00 0.00 45 1011.8
20260905190056 38 348 3.2 3.2 0.00 0.00 0.00 46 1011.6
20260905185556 38 19 4.8 8.0 0.00 0.00 0.00 48 1011.6
20260905185050 38 270 11.3 12.9 0.00 0.00 0.00 47 1011.9
20260905184545 38 110 3.2 3.2 0.00 0.00 0.00 46 1012.1
20260905184044 38 353 6.4 9.7 0.00 0.00 0.00 47 1012.1
20260905183538 38 325 3.2 3.2 0.00 0.00 0.00 47 1012.1
20260905183033 38 251 4.8 4.8 0.00 0.00 0.00 48 1012.2
20260905182533 38 96 3.2 3.2 0.00 0.00 0.00 49 1012.2
20260905182027 38 291 3.2 8.0 0.00 0.00 0.00 48 1012.0
20260905181522 37 340 4.8 4.8 0.00 0.00 0.00 50 1012.1
20260905181021 37 18 1.6 3.2 0.00 0.00 0.00 54 1012.2
20260905180516 36 259 4.8 4.8 0.00 0.00 0.00 53 1012.3
20260905180012 37 316 4.8 8.0 0.00 0.00 0.00 53 1012.7
20260905175510 37 8 4.8 8.0 0.00 0.00 0.00 52 1012.4
20260905175007 37 163 4.8 4.8 0.00 0.00 0.00 53 1012.7
20260905174502 37 149 3.2 4.8 0.00 0.00 0.00 52 1012.5
20260905173957 37 308 6.4 8.0 0.00 0.00 0.00 52 1012.6
20260905173453 37 181 4.8 8.0 0.00 0.00 0.00 53 1012.8
20260905172949 37 111 4.8 4.8 0.00 0.00 0.00 52 1012.7
20260905172447 37 301 8.0 9.7 0.00 0.00 0.00 52 1012.9
20260905171942 36 14 1.6 1.6 0.00 0.00 0.00 55 1012.9
20260905171439 37 316 4.8 4.8 0.00 0.00 0.00 52 1013.1
20260905170935 37 282 3.2 8.0 0.00 0.00 0.00 52 1013.0
20260905170431 37 110 0.0 1.6 0.00 0.00 0.00 55 1013.0
20260905165930 37 339 6.4 8.0 0.00 0.00 0.00 53 1012.9
20260905165425 37 63 1.6 1.6 0.00 0.00 0.00 55 1013.0
20260905164921 37 9 3.2 3.2 0.00 0.00 0.00 54 1013.1
20260905164420 36 46 3.2 4.8 0.00 0.00 0.00 56 1013.4
20260905163915 36 339 4.8 4.8 0.00 0.00 0.00 55 1013.3
20260905163412 37 341 4.8 4.8 0.00 0.00 0.00 55 1013.6
20260905162908 36 133 3.2 3.2 0.00 0.00 0.00 56 1013.5
20260905162402 36 309 6.4 8.0 0.00 0.00 0.00 58 1013.8
20260905161857 36 216 4.8 4.8 0.00 0.00 0.00 57 1013.9
20260905161356 36 18 1.6 1.6 0.00 0.00 0.00 60 1013.8
20260905160854 35 72 0.0 0.0 0.00 0.00 0.00 61 1013.8
20260905160349 35 322 3.2 3.2 0.00 0.00 0.00 61 1013.8
20260905155843 35 67 3.2 3.2 0.00 0.00 0.00 61 1014.0
20260905155342 35 287 6.4 8.0 0.00 0.00 0.00 60 1013.9
20260905154837 35 343 3.2 3.2 0.00 0.00 0.00 62 1013.9
20260905154332 35 67 0.0 0.0 0.00 0.00 0.00 64 1014.0
20260905153827 34 66 4.8 4.8 0.00 0.00 0.00 65 1013.8
20260905153324 34 48 3.2 3.2 0.00 0.00 0.00 66 1013.6
20260905152824 34 62 0.0 1.6 0.00 0.00 0.00 64 1014.1
20260905152323 33 97 1.6 3.2 0.00 0.00 0.00 66 1013.9
20260905151818 33 74 1.6 1.6 0.00 0.00 0.00 66 1013.7
20260905151313 34 105 1.6 3.2 0.00 0.00 0.00 64 1013.9
20260905150808 34 81 0.0 0.0 0.00 0.00 0.00 63 1013.7
20260905150308 33 69 0.0 0.0 0.00 0.00 0.00 67 1014.0
20260905145805 33 102 3.2 4.8 0.00 0.00 0.00 65 1013.8
20260905145259 33 63 0.0 1.6 0.00 0.00 0.00 66 1013.7
20260905144758 33 115 1.6 3.2 0.00 0.00 0.00 65 1014.1
20260905144254 33 67 1.6 1.6 0.00 0.00 0.00 66 1013.8
20260905143752 33 85 1.6 1.6 0.00 0.00 0.00 67 1013.7
20260905143247 33 54 1.6 1.6 0.00 0.00 0.00 67 1014.0
20260905142745 33 81 0.0 1.6 0.00 0.00 0.00 66 1013.9
20260905142240 32 77 0.0 1.6 0.00 0.00 0.00 67 1013.9
20260905141736 33 63 0.0 0.0 0.00 0.00 0.00 66 1013.8
20260905141232 32 43 3.2 3.2 0.00 0.00 0.00 69 1014.1
20260905140727 31 87 0.0 0.0 0.00 0.00 0.00 72 1014.1
20260905140221 31 93 1.6 1.6 0.00 0.00 0.00 74 1014.1
20260905135721 31 90 0.0 1.6 0.00 0.00 0.00 72 1013.9
20260905135217 31 89 1.6 1.6 0.00 0.00 0.00 73 1014.0
20260905134716 31 82 0.0 1.6 0.00 0.00 0.00 73 1013.9
20260905134215 31 75 1.6 1.6 0.00 0.00 0.00 73 1013.9
20260905133711 30 66 0.0 0.0 0.00 0.00 0.00 76 1014.3
20260905133206 30 94 1.6 1.6 0.00 0.00 0.00 76 1014.4
20260905132704 30 90 1.6 1.6 0.00 0.00 0.00 77 1014.1
20260905132200 29 77 0.0 1.6 0.00 0.00 0.00 79 1014.2
20260905131655 28 96 1.6 3.2 0.00 0.00 0.00 81 1014.1
20260905131150 28 92 1.6 3.2 0.00 0.00 0.00 82 1014.2
20260905130645 27 108 4.8 4.8 0.00 0.00 0.00 83 1014.2
20260905130144 27 109 1.6 1.6 0.00 0.00 0.00 87 1014.2
20260905125638 27 76 0.0 0.0 0.00 0.00 0.00 88 1014.3
20260905125134 26 72 0.0 0.0 0.00 0.00 0.00 89 1014.3
20260905124631 26 81 0.0 1.6 0.00 0.00 0.00 89 1014.3
20260905124127 26 79 0.0 0.0 0.00 0.00 0.00 91 1014.1
20260905123622 26 73 0.0 0.0 0.00 0.00 0.00 92 1014.0
20260905123119 25 71 0.0 0.0 0.00 0.00 0.00 93 1014.2
20260905122618 25 82 0.0 0.0 0.00 0.00 0.00 94 1014.0
20260905122113 25 79 0.0 0.0 0.00 0.00 0.00 95 1014.0
20260905121608 25 79 0.0 0.0 0.00 0.00 0.00 95 1013.9
20260905121103 25 80 0.0 0.0 0.00 0.00 0.00 96 1014.0
20260905120602 25 76 0.0 0.0 0.00 0.00 0.00 96 1013.7
20260905120057 25 75 0.0 0.0 0.00 0.00 0.00 96 1013.8
20260905115556 24 66 0.0 0.0 0.00 0.00 0.00 97 1013.8
20260905115051 24 66 0.0 0.0 0.00 0.00 0.00 97 1013.9
20260905114550 24 66 0.0 0.0 0.00 0.00 0.00 97 1013.6
20260905114050 24 66 0.0 0.0 0.00 0.00 0.00 97 1013.6
20260905113544 24 66 0.0 0.0 0.00 0.00 0.00 96 1013.6
20260905113040 25 66 0.0 0.0 0.00 0.00 0.00 96 1013.6
20260905112535 25 66 0.0 0.0 0.00 0.00 0.00 96 1013.3
20260905112030 25 65 0.0 0.0 0.00 0.00 0.00 96 1013.4
20260905111525 25 65 0.0 0.0 0.00 0.00 0.00 96 1013.5
20260905111024 25 64 0.0 0.0 0.00 0.00 0.00 96 1013.4
20260905110524 25 57 0.0 0.0 0.00 0.00 0.00 96 1013.4
20260905110019 25 51 1.6 1.6 0.00 0.00 0.00 95 1013.4
20260905105513 25 84 0.0 0.0 0.00 0.00 0.00 95 1013.5
20260905105013 25 84 0.0 0.0 0.00 0.00 0.00 95 1013.4
20260905104509 25 84 0.0 0.0 0.00 0.00 0.00 95 1013.2